Simultaneous Nadir Overpasses (SNOs) Predictions

Prediction of SNOs between METOP-B and NOAA-19 Satellite Orbit:

Table of predicted SNOs for the next 14.0 days since TLE Epoch: 12/19/2014
Index Date (METOP-B) Time (METOP-B) Lat,Lon (METOP-B) SZA (METOP-B ) Date (NOAA-19) Time (NOAA-19) Lat,Lon (NOAA-19) SZA (NOAA-19 ) Distance(km) Time Diff (sec)
1 12/26/2014 14:57:51 74.47, -48.31 97.77 12/26/2014 14:56:36 74.51, -48.39 97.82 4.94 75
2 12/26/2014 15:48:33 -74.48, 119.03 82.23 12/26/2014 15:47:39 -74.45, 119.00 82.25 2.86 54
3 12/26/2014 16:39:13 74.45, -73.70 97.75 12/26/2014 16:38:38 74.46, -73.76 97.76 1.90 35
4 12/26/2014 17:29:56 -74.41, 93.52 82.29 12/26/2014 17:29:41 -74.40, 93.63 82.31 3.43 15
5 12/26/2014 18:20:36 74.39, -99.21 97.69 12/26/2014 18:20:40 74.41, -99.13 97.70 3.08 4
6 12/26/2014 19:11:18 -74.40, 68.13 82.31 12/26/2014 19:11:44 -74.40, 68.13 82.31 0.36 26
7 12/26/2014 20:01:58 74.37,-124.59 97.67 12/26/2014 20:02:43 74.40,-124.63 97.69 3.39 45
8 12/26/2014 20:52:40 -74.38, 42.75 82.33 12/26/2014 20:53:46 -74.35, 42.76 82.37 3.62 66
9 12/26/2014 21:43:29 73.91,-151.09 97.23 12/26/2014 21:44:37 73.96,-148.99 97.24 64.85 68




NCC Satellite Simultaneous Nadir Overpasses (SNOs) Prediction Service
